カタログに戻る

LEMUR 2 JEROEN

Lost科学LEO
NORAD 40934·PAYLOAD·🇺🇸 United States

打ち上げ Sep 28, 2015 から Satish Dhawan Space Centre

Loading…

次のパス (今後24時間)

TLE

古いSource: Space-Track

元期: Jan 4, 2024, 11:16 UTC

1 40934U 15052E   24004.46951125  .00005017  00000-0  51754-3 0  9994
2 40934   6.0073  50.3046 0009895 338.4222  21.5489 14.83222395447206

AllMySatでLEMUR 2 JEROENをリアルタイム追跡

Download on the App Store